contact:dominique.lefevre@mio.osupytheas.fr, maurice.libes@osupytheas.fr, didier.mallarino@osupytheas.fr
Project:EMSO http://www.emso-fr.org/EMSO-France
Depth: 2436.0 m
Title:EMSO Ligure Ouest : Data MII capteur MICROCAT
DateTime_Computer,Latitude,Longitude,Temperature,Conductivity,Pressure,DateTime_Instrument
DateTime_Computer,Latitude,Longitude,degC,S m-1,dbar,DateTime_Instrument
2023-03-22T00:01:57Z,42.805,6.029,13.3026,4.60079,2470.553,2023-3-22T02:04:40Z
2023-03-22T00:05:00Z,42.805,6.029,13.3015,4.60073,2470.544,2023-3-22T02:07:43Z
2023-03-22T00:08:03Z,42.805,6.029,13.3014,4.60075,2470.53,2023-3-22T02:10:46Z
2023-03-22T00:11:06Z,42.805,6.029,13.3012,4.60077,2470.53,2023-3-22T02:13:49Z
2023-03-22T00:14:09Z,42.805,6.029,13.3011,4.60079,2470.544,2023-3-22T02:16:52Z
2023-03-22T00:17:12Z,42.805,6.029,13.3018,4.60084,2470.53,2023-3-22T02:19:55Z
2023-03-22T00:20:15Z,42.805,6.029,13.3013,4.60078,2470.544,2023-3-22T02:22:58Z
2023-03-22T00:23:18Z,42.805,6.029,13.3011,4.60092,2470.53,2023-3-22T02:26:01Z
2023-03-22T00:26:21Z,42.805,6.029,13.3013,4.60083,2470.507,2023-3-22T02:29:04Z
2023-03-22T00:29:24Z,42.805,6.029,13.3015,4.60074,2470.53,2023-3-22T02:32:07Z
2023-03-22T00:32:27Z,42.805,6.029,13.3015,4.60073,2470.52,2023-3-22T02:35:11Z
2023-03-22T00:35:30Z,42.805,6.029,13.3015,4.60074,2470.507,2023-3-22T02:38:14Z
2023-03-22T00:38:34Z,42.805,6.029,13.3015,4.60072,2470.507,2023-3-22T02:41:17Z
2023-03-22T00:41:37Z,42.805,6.029,13.3011,4.60074,2470.497,2023-3-22T02:44:20Z
2023-03-22T00:44:40Z,42.805,6.029,13.3015,4.60084,2470.507,2023-3-22T02:47:23Z
2023-03-22T00:47:43Z,42.805,6.029,13.3014,4.60074,2470.52,2023-3-22T02:50:26Z
2023-03-22T00:50:46Z,42.805,6.029,13.3014,4.60075,2470.544,2023-3-22T02:53:29Z
2023-03-22T00:53:49Z,42.805,6.029,13.3012,4.60081,2470.507,2023-3-22T02:56:32Z
2023-03-22T00:56:52Z,42.805,6.029,13.3016,4.60089,2470.507,2023-3-22T02:59:35Z
2023-03-22T00:59:55Z,42.805,6.029,13.3015,4.60074,2470.507,2023-3-22T03:02:38Z
2023-03-22T01:02:58Z,42.805,6.029,13.3014,4.60074,2470.483,2023-3-22T03:05:41Z
2023-03-22T01:06:01Z,42.805,6.029,13.3014,4.60073,2470.483,2023-3-22T03:08:45Z
2023-03-22T01:09:04Z,42.805,6.029,13.3011,4.60074,2470.507,2023-3-22T03:11:48Z
2023-03-22T01:12:07Z,42.805,6.029,13.3011,4.60077,2470.507,2023-3-22T03:14:51Z
2023-03-22T01:15:11Z,42.805,6.029,13.3014,4.60076,2470.507,2023-3-22T03:17:54Z
2023-03-22T01:18:14Z,42.805,6.029,13.3014,4.60072,2470.483,2023-3-22T03:20:57Z
2023-03-22T01:21:17Z,42.805,6.029,13.3014,4.60074,2470.483,2023-3-22T03:24:00Z
2023-03-22T01:24:20Z,42.805,6.029,13.3015,4.60073,2470.483,2023-3-22T03:27:03Z
2023-03-22T01:27:23Z,42.805,6.029,13.3017,4.60073,2470.46,2023-3-22T03:30:06Z
2023-03-22T01:30:26Z,42.805,6.029,13.3017,4.60078,2470.497,2023-3-22T03:33:09Z
2023-03-22T01:33:29Z,42.805,6.029,13.3014,4.60085,2470.507,2023-3-22T03:36:12Z
2023-03-22T01:36:32Z,42.805,6.029,13.3011,4.60090,2470.474,2023-3-22T03:39:15Z
2023-03-22T01:39:35Z,42.805,6.029,13.3015,4.60077,2470.483,2023-3-22T03:42:18Z
2023-03-22T01:42:38Z,42.805,6.029,13.3014,4.60083,2470.483,2023-3-22T03:45:21Z
2023-03-22T01:45:41Z,42.805,6.029,13.3017,4.60091,2470.507,2023-3-22T03:48:25Z
2023-03-22T01:48:44Z,42.805,6.029,13.3015,4.60084,2470.497,2023-3-22T03:51:28Z
2023-03-22T01:51:47Z,42.805,6.029,13.3036,4.60089,2470.497,2023-3-22T03:54:31Z
2023-03-22T01:54:51Z,42.805,6.029,13.3015,4.60087,2470.497,2023-3-22T03:57:34Z
2023-03-22T01:57:54Z,42.805,6.029,13.3014,4.60079,2470.497,2023-3-22T04:00:37Z
2023-03-22T02:00:57Z,42.805,6.029,13.3016,4.60074,2470.483,2023-3-22T04:03:40Z
2023-03-22T02:04:00Z,42.805,6.029,13.3014,4.60074,2470.483,2023-3-22T04:06:43Z
2023-03-22T02:07:03Z,42.805,6.029,13.3014,4.60073,2470.53,2023-3-22T04:09:46Z
2023-03-22T02:10:06Z,42.805,6.029,13.3015,4.60079,2470.483,2023-3-22T04:12:49Z
2023-03-22T02:13:09Z,42.805,6.029,13.3015,4.60078,2470.497,2023-3-22T04:15:52Z
2023-03-22T02:16:12Z,42.805,6.029,13.3015,4.60081,2470.483,2023-3-22T04:18:55Z
2023-03-22T02:19:15Z,42.805,6.029,13.3014,4.60081,2470.483,2023-3-22T04:21:58Z
2023-03-22T02:22:18Z,42.805,6.029,13.3017,4.60088,2470.52,2023-3-22T04:25:02Z
2023-03-22T02:25:21Z,42.805,6.029,13.3017,4.60087,2470.507,2023-3-22T04:28:05Z
2023-03-22T02:28:24Z,42.805,6.029,13.3017,4.60087,2470.483,2023-3-22T04:31:08Z
2023-03-22T02:31:27Z,42.805,6.029,13.3015,4.60085,2470.497,2023-3-22T04:34:11Z
2023-03-22T02:34:31Z,42.805,6.029,13.3017,4.60091,2470.483,2023-3-22T04:37:14Z
2023-03-22T02:37:34Z,42.805,6.029,13.3011,4.60089,2470.497,2023-3-22T04:40:17Z
2023-03-22T02:40:37Z,42.805,6.029,13.3021,4.60102,2470.483,2023-3-22T04:43:20Z
2023-03-22T02:43:40Z,42.805,6.029,13.3020,4.60107,2470.507,2023-3-22T04:46:23Z
2023-03-22T02:46:43Z,42.805,6.029,13.3014,4.60088,2470.507,2023-3-22T04:49:26Z
2023-03-22T02:49:46Z,42.805,6.029,13.3033,4.60114,2470.497,2023-3-22T04:52:29Z
2023-03-22T02:52:49Z,42.805,6.029,13.3029,4.60102,2470.53,2023-3-22T04:55:32Z
2023-03-22T02:55:52Z,42.805,6.029,13.3014,4.60082,2470.52,2023-3-22T04:58:35Z
2023-03-22T02:58:55Z,42.805,6.029,13.3028,4.60087,2470.53,2023-3-22T05:01:39Z
2023-03-22T03:01:58Z,42.805,6.029,13.3040,4.60099,2470.544,2023-3-22T05:04:42Z
2023-03-22T03:05:01Z,42.805,6.029,13.3043,4.60118,2470.52,2023-3-22T05:07:45Z
2023-03-22T03:08:04Z,42.805,6.029,13.3083,4.60097,2470.52,2023-3-22T05:10:48Z
2023-03-22T03:11:08Z,42.805,6.029,13.3043,4.60100,2470.507,2023-3-22T05:13:51Z
2023-03-22T03:14:11Z,42.805,6.029,13.3037,4.60101,2470.53,2023-3-22T05:16:54Z
2023-03-22T03:17:14Z,42.805,6.029,13.3043,4.60093,2470.544,2023-3-22T05:19:57Z
2023-03-22T03:20:17Z,42.805,6.029,13.3045,4.60104,2470.53,2023-3-22T05:23:00Z
2023-03-22T03:23:20Z,42.805,6.029,13.3053,4.60119,2470.567,2023-3-22T05:26:03Z
2023-03-22T03:26:23Z,42.805,6.029,13.3043,4.60098,2470.553,2023-3-22T05:29:06Z
2023-03-22T03:29:26Z,42.805,6.029,13.3044,4.60101,2470.53,2023-3-22T05:32:09Z
2023-03-22T03:32:29Z,42.805,6.029,13.3034,4.60110,2470.567,2023-3-22T05:35:12Z
2023-03-22T03:35:32Z,42.805,6.029,13.3030,4.60105,2470.553,2023-3-22T05:38:15Z
2023-03-22T03:38:35Z,42.805,6.029,13.3061,4.60115,2470.53,2023-3-22T05:41:19Z
2023-03-22T03:41:38Z,42.805,6.029,13.3047,4.60112,2470.567,2023-3-22T05:44:22Z
2023-03-22T03:44:41Z,42.805,6.029,13.3048,4.60088,2470.591,2023-3-22T05:47:25Z
2023-03-22T03:47:45Z,42.805,6.029,13.3036,4.60098,2470.577,2023-3-22T05:50:28Z
2023-03-22T03:50:48Z,42.805,6.029,13.3041,4.60094,2470.553,2023-3-22T05:53:31Z
2023-03-22T03:53:51Z,42.805,6.029,13.3033,4.60092,2470.591,2023-3-22T05:56:34Z
2023-03-22T03:56:54Z,42.805,6.029,13.3039,4.60092,2470.591,2023-3-22T05:59:37Z
2023-03-22T03:59:57Z,42.805,6.029,13.3034,4.60084,2470.563,2023-3-22T06:02:40Z
2023-03-22T04:03:00Z,42.805,6.029,13.3046,4.60114,2470.6,2023-3-22T06:05:43Z
2023-03-22T04:06:03Z,42.805,6.029,13.3071,4.60092,2470.6,2023-3-22T06:08:46Z
2023-03-22T04:09:06Z,42.805,6.029,13.3045,4.60090,2470.591,2023-3-22T06:11:49Z
2023-03-22T04:12:09Z,42.805,6.029,13.3036,4.60091,2470.6,2023-3-22T06:14:52Z
2023-03-22T04:15:12Z,42.805,6.029,13.3030,4.60097,2470.6,2023-3-22T06:17:56Z
2023-03-22T04:18:15Z,42.805,6.029,13.3047,4.60091,2470.577,2023-3-22T06:20:59Z
2023-03-22T04:21:18Z,42.805,6.029,13.3027,4.60102,2470.586,2023-3-22T06:24:02Z
2023-03-22T04:24:21Z,42.805,6.029,13.3076,4.60097,2470.637,2023-3-22T06:27:05Z
2023-03-22T04:27:25Z,42.805,6.029,13.3039,4.60089,2470.661,2023-3-22T06:30:08Z
2023-03-22T04:30:28Z,42.805,6.029,13.3041,4.60097,2470.6,2023-3-22T06:33:11Z
2023-03-22T04:33:31Z,42.805,6.029,13.3041,4.60089,2470.646,2023-3-22T06:36:14Z
2023-03-22T04:36:34Z,42.805,6.029,13.3050,4.60111,2470.6,2023-3-22T06:39:17Z
2023-03-22T04:39:37Z,42.805,6.029,13.3048,4.60111,2470.624,2023-3-22T06:42:20Z
2023-03-22T04:42:40Z,42.805,6.029,13.3039,4.60112,2470.67,2023-3-22T06:45:23Z
2023-03-22T04:45:43Z,42.805,6.029,13.3045,4.60103,2470.646,2023-3-22T06:48:26Z
2023-03-22T04:48:46Z,42.805,6.029,13.3036,4.60091,2470.646,2023-3-22T06:51:29Z
2023-03-22T04:51:49Z,42.805,6.029,13.3034,4.60087,2470.67,2023-3-22T06:54:33Z
2023-03-22T04:54:52Z,42.805,6.029,13.3036,4.60096,2470.646,2023-3-22T06:57:36Z
2023-03-22T04:57:55Z,42.805,6.029,13.3039,4.60078,2470.646,2023-3-22T07:00:39Z
2023-03-22T05:00:58Z,42.805,6.029,13.3039,4.60089,2470.67,2023-3-22T07:03:42Z
2023-03-22T05:04:01Z,42.805,6.029,13.3041,4.60080,2470.646,2023-3-22T07:06:45Z
2023-03-22T05:07:05Z,42.805,6.029,13.3038,4.60104,2470.693,2023-3-22T07:09:48Z
2023-03-22T05:10:08Z,42.805,6.029,13.3040,4.60087,2470.693,2023-3-22T07:12:51Z
2023-03-22T05:13:11Z,42.805,6.029,13.3032,4.60087,2470.693,2023-3-22T07:15:54Z
2023-03-22T05:16:14Z,42.805,6.029,13.3042,4.60089,2470.679,2023-3-22T07:18:57Z
2023-03-22T05:19:17Z,42.805,6.029,13.3038,4.60089,2470.67,2023-3-22T07:22:00Z
2023-03-22T05:22:20Z,42.805,6.029,13.3039,4.60094,2470.684,2023-3-22T07:25:03Z
2023-03-22T05:25:23Z,42.805,6.029,13.3034,4.60085,2470.693,2023-3-22T07:28:06Z
2023-03-22T05:28:26Z,42.805,6.029,13.3043,4.60097,2470.717,2023-3-22T07:31:09Z
2023-03-22T05:31:29Z,42.805,6.029,13.3035,4.60087,2470.693,2023-3-22T07:34:13Z
2023-03-22T05:34:32Z,42.805,6.029,13.3031,4.60081,2470.717,2023-3-22T07:37:16Z
2023-03-22T05:37:35Z,42.805,6.029,13.3048,4.60097,2470.73,2023-3-22T07:40:19Z
2023-03-22T05:40:38Z,42.805,6.029,13.3034,4.60084,2470.693,2023-3-22T07:43:22Z
2023-03-22T05:43:42Z,42.805,6.029,13.3036,4.60087,2470.693,2023-3-22T07:46:25Z
2023-03-22T05:46:45Z,42.805,6.029,13.3030,4.60097,2470.717,2023-3-22T07:49:28Z
2023-03-22T05:49:48Z,42.805,6.029,13.3039,4.60107,2470.717,2023-3-22T07:52:31Z
2023-03-22T05:52:51Z,42.805,6.029,13.3024,4.60107,2470.717,2023-3-22T07:55:34Z
2023-03-22T05:55:54Z,42.805,6.029,13.3034,4.60101,2470.754,2023-3-22T07:58:37Z
2023-03-22T05:58:57Z,42.805,6.029,13.3036,4.60096,2470.73,2023-3-22T08:01:40Z
2023-03-22T06:02:00Z,42.805,6.029,13.3041,4.60102,2470.754,2023-3-22T08:04:43Z
2023-03-22T06:05:03Z,42.805,6.029,13.3049,4.60097,2470.754,2023-3-22T08:07:46Z
2023-03-22T06:08:06Z,42.805,6.029,13.3027,4.60096,2470.74,2023-3-22T08:10:50Z
2023-03-22T06:11:09Z,42.805,6.029,13.3039,4.60098,2470.74,2023-3-22T08:13:53Z
2023-03-22T06:14:12Z,42.805,6.029,13.3037,4.60093,2470.717,2023-3-22T08:16:56Z
2023-03-22T06:17:15Z,42.805,6.029,13.3036,4.60117,2470.763,2023-3-22T08:19:59Z
2023-03-22T06:20:18Z,42.805,6.029,13.3035,4.60097,2470.763,2023-3-22T08:23:02Z
2023-03-22T06:23:22Z,42.805,6.029,13.3042,4.60098,2470.787,2023-3-22T08:26:05Z
2023-03-22T06:26:25Z,42.805,6.029,13.3038,4.60107,2470.8,2023-3-22T08:29:08Z
2023-03-22T06:29:28Z,42.805,6.029,13.3031,4.60087,2470.8,2023-3-22T08:32:11Z
2023-03-22T06:32:31Z,42.805,6.029,13.3040,4.60092,2470.777,2023-3-22T08:35:14Z
2023-03-22T06:35:34Z,42.805,6.029,13.3024,4.60090,2470.754,2023-3-22T08:38:17Z
2023-03-22T06:38:37Z,42.805,6.029,13.3041,4.60110,2470.763,2023-3-22T08:41:20Z
2023-03-22T06:41:40Z,42.805,6.029,13.3024,4.60094,2470.763,2023-3-22T08:44:23Z
2023-03-22T06:44:43Z,42.805,6.029,13.3035,4.60102,2470.763,2023-3-22T08:47:26Z
2023-03-22T06:47:46Z,42.805,6.029,13.3026,4.60107,2470.74,2023-3-22T08:50:30Z
2023-03-22T06:50:49Z,42.805,6.029,13.3029,4.60095,2470.8,2023-3-22T08:53:33Z
2023-03-22T06:53:52Z,42.805,6.029,13.3030,4.60094,2470.74,2023-3-22T08:56:36Z
2023-03-22T06:56:55Z,42.805,6.029,13.3034,4.60099,2470.8,2023-3-22T08:59:39Z
2023-03-22T06:59:58Z,42.805,6.029,13.3031,4.60096,2470.777,2023-3-22T09:02:42Z
2023-03-22T07:03:02Z,42.805,6.029,13.3024,4.60101,2470.787,2023-3-22T09:05:45Z
2023-03-22T07:06:05Z,42.805,6.029,13.3041,4.60097,2470.824,2023-3-22T09:08:48Z
2023-03-22T07:09:08Z,42.805,6.029,13.3023,4.60108,2470.787,2023-3-22T09:11:51Z
2023-03-22T07:12:11Z,42.805,6.029,13.3029,4.60104,2470.777,2023-3-22T09:14:54Z
2023-03-22T07:15:14Z,42.805,6.029,13.3024,4.60092,2470.796,2023-3-22T09:17:57Z
2023-03-22T07:18:17Z,42.805,6.029,13.3026,4.60092,2470.763,2023-3-22T09:21:00Z
2023-03-22T07:21:20Z,42.805,6.029,13.3026,4.60103,2470.81,2023-3-22T09:24:03Z
2023-03-22T07:24:23Z,42.805,6.029,13.3025,4.60109,2470.81,2023-3-22T09:27:07Z
2023-03-22T07:27:26Z,42.805,6.029,13.3029,4.60087,2470.787,2023-3-22T09:30:10Z
2023-03-22T07:30:29Z,42.805,6.029,13.3031,4.60102,2470.787,2023-3-22T09:33:13Z
2023-03-22T07:33:32Z,42.805,6.029,13.3021,4.60089,2470.81,2023-3-22T09:36:16Z
2023-03-22T07:36:35Z,42.805,6.029,13.3023,4.60099,2470.8,2023-3-22T09:39:19Z
2023-03-22T07:39:39Z,42.805,6.029,13.3031,4.60104,2470.81,2023-3-22T09:42:22Z
2023-03-22T07:42:42Z,42.805,6.029,13.3043,4.60094,2470.787,2023-3-22T09:45:25Z
2023-03-22T07:45:45Z,42.805,6.029,13.3030,4.60093,2470.81,2023-3-22T09:48:28Z
2023-03-22T07:48:48Z,42.805,6.029,13.3030,4.60092,2470.81,2023-3-22T09:51:31Z
2023-03-22T07:51:51Z,42.805,6.029,13.3036,4.60089,2470.787,2023-3-22T09:54:34Z
2023-03-22T07:54:54Z,42.805,6.029,13.3035,4.60091,2470.833,2023-3-22T09:57:37Z
2023-03-22T07:57:57Z,42.805,6.029,13.3036,4.60105,2470.763,2023-3-22T10:00:40Z
2023-03-22T08:01:00Z,42.805,6.029,13.3019,4.60092,2470.824,2023-3-22T10:03:44Z
2023-03-22T08:04:03Z,42.805,6.029,13.3034,4.60094,2470.787,2023-3-22T10:06:47Z
2023-03-22T08:07:06Z,42.805,6.029,13.3029,4.60092,2470.81,2023-3-22T10:09:50Z
2023-03-22T08:10:09Z,42.805,6.029,13.3029,4.60098,2470.796,2023-3-22T10:12:53Z
2023-03-22T08:13:12Z,42.805,6.029,13.3031,4.60095,2470.81,2023-3-22T10:15:56Z
2023-03-22T08:16:16Z,42.805,6.029,13.3031,4.60084,2470.824,2023-3-22T10:18:59Z
2023-03-22T08:19:19Z,42.805,6.029,13.3017,4.60090,2470.824,2023-3-22T10:22:02Z
2023-03-22T08:22:22Z,42.805,6.029,13.3026,4.60091,2470.8,2023-3-22T10:25:05Z
2023-03-22T08:25:25Z,42.805,6.029,13.3019,4.60094,2470.824,2023-3-22T10:28:08Z
2023-03-22T08:28:28Z,42.805,6.029,13.3031,4.60092,2470.787,2023-3-22T10:31:11Z
2023-03-22T08:31:31Z,42.805,6.029,13.3034,4.60117,2470.763,2023-3-22T10:34:14Z
2023-03-22T08:34:34Z,42.805,6.029,13.3029,4.60087,2470.74,2023-3-22T10:37:17Z
2023-03-22T08:37:37Z,42.805,6.029,13.3026,4.60092,2470.75,2023-3-22T10:40:21Z
2023-03-22T08:40:40Z,42.805,6.029,13.3028,4.60082,2470.81,2023-3-22T10:43:24Z
2023-03-22T08:43:43Z,42.805,6.029,13.3021,4.60087,2470.763,2023-3-22T10:46:27Z
2023-03-22T08:46:46Z,42.805,6.029,13.3026,4.60094,2470.763,2023-3-22T10:49:30Z
2023-03-22T08:49:49Z,42.805,6.029,13.3028,4.60100,2470.81,2023-3-22T10:52:33Z
2023-03-22T08:52:53Z,42.805,6.029,13.3020,4.60092,2470.787,2023-3-22T10:55:36Z
2023-03-22T08:55:56Z,42.805,6.029,13.3018,4.60104,2470.8,2023-3-22T10:58:39Z
2023-03-22T08:58:59Z,42.805,6.029,13.3014,4.60094,2470.763,2023-3-22T11:01:42Z
2023-03-22T09:02:02Z,42.805,6.029,13.3019,4.60089,2470.74,2023-3-22T11:04:45Z
2023-03-22T09:05:05Z,42.805,6.029,13.3023,4.60090,2470.787,2023-3-22T11:07:48Z
2023-03-22T09:08:08Z,42.805,6.029,13.3022,4.60095,2470.8,2023-3-22T11:10:51Z
2023-03-22T09:11:11Z,42.805,6.029,13.3015,4.60089,2470.8,2023-3-22T11:13:54Z
2023-03-22T09:14:14Z,42.805,6.029,13.3014,4.60080,2470.763,2023-3-22T11:16:58Z
2023-03-22T09:17:17Z,42.805,6.029,13.3017,4.60090,2470.763,2023-3-22T11:20:01Z
2023-03-22T09:20:20Z,42.805,6.029,13.3018,4.60082,2470.74,2023-3-22T11:23:04Z
2023-03-22T09:23:23Z,42.805,6.029,13.3015,4.60089,2470.74,2023-3-22T11:26:07Z
2023-03-22T09:26:26Z,42.805,6.029,13.3014,4.60085,2470.717,2023-3-22T11:29:10Z
2023-03-22T09:29:30Z,42.805,6.029,13.3017,4.60090,2470.763,2023-3-22T11:32:13Z
2023-03-22T09:32:33Z,42.805,6.029,13.3016,4.60081,2470.763,2023-3-22T11:35:16Z
2023-03-22T09:35:36Z,42.805,6.029,13.3019,4.60087,2470.74,2023-3-22T11:38:19Z
2023-03-22T09:38:39Z,42.805,6.029,13.3011,4.60091,2470.763,2023-3-22T11:41:22Z
2023-03-22T09:41:42Z,42.805,6.029,13.3014,4.60074,2470.763,2023-3-22T11:44:25Z
2023-03-22T09:44:45Z,42.805,6.029,13.3021,4.60083,2470.74,2023-3-22T11:47:28Z
2023-03-22T09:47:48Z,42.805,6.029,13.3014,4.60077,2470.74,2023-3-22T11:50:32Z
2023-03-22T09:50:51Z,42.805,6.029,13.3011,4.60076,2470.763,2023-3-22T11:53:35Z
2023-03-22T09:53:54Z,42.805,6.029,13.3014,4.60089,2470.763,2023-3-22T11:56:38Z
2023-03-22T09:56:57Z,42.805,6.029,13.3013,4.60081,2470.754,2023-3-22T11:59:41Z
2023-03-22T10:00:00Z,42.805,6.029,13.3014,4.60079,2470.763,2023-3-22T12:02:44Z
2023-03-22T10:03:04Z,42.805,6.029,13.3015,4.60078,2470.73,2023-3-22T12:05:47Z
2023-03-22T10:06:07Z,42.805,6.029,13.3013,4.60080,2470.754,2023-3-22T12:08:50Z
2023-03-22T10:09:10Z,42.805,6.029,13.3015,4.60076,2470.74,2023-3-22T12:11:53Z
2023-03-22T10:12:13Z,42.805,6.029,13.3013,4.60072,2470.717,2023-3-22T12:14:56Z
2023-03-22T10:15:16Z,42.805,6.029,13.3013,4.60074,2470.754,2023-3-22T12:17:59Z
2023-03-22T10:18:19Z,42.805,6.029,13.3016,4.60072,2470.717,2023-3-22T12:21:02Z
2023-03-22T10:21:22Z,42.805,6.029,13.3015,4.60072,2470.693,2023-3-22T12:24:05Z
2023-03-22T10:24:25Z,42.805,6.029,13.3008,4.60074,2470.707,2023-3-22T12:27:09Z
2023-03-22T10:27:28Z,42.805,6.029,13.3010,4.60072,2470.693,2023-3-22T12:30:12Z
2023-03-22T10:30:31Z,42.805,6.029,13.3014,4.60071,2470.693,2023-3-22T12:33:15Z
2023-03-22T10:33:34Z,42.805,6.029,13.3014,4.60071,2470.717,2023-3-22T12:36:18Z
2023-03-22T10:36:37Z,42.805,6.029,13.3013,4.60072,2470.73,2023-3-22T12:39:21Z
2023-03-22T10:39:40Z,42.805,6.029,13.3011,4.60071,2470.74,2023-3-22T12:42:24Z
2023-03-22T10:42:44Z,42.805,6.029,13.3011,4.60072,2470.754,2023-3-22T12:45:27Z
2023-03-22T10:45:47Z,42.805,6.029,13.3016,4.60076,2470.707,2023-3-22T12:48:30Z
2023-03-22T10:48:50Z,42.805,6.029,13.3014,4.60074,2470.73,2023-3-22T12:51:33Z
2023-03-22T10:51:53Z,42.805,6.029,13.3014,4.60072,2470.693,2023-3-22T12:54:36Z
2023-03-22T10:54:56Z,42.805,6.029,13.3012,4.60073,2470.693,2023-3-22T12:57:39Z
2023-03-22T10:57:59Z,42.805,6.029,13.3014,4.60071,2470.717,2023-3-22T13:00:42Z
2023-03-22T11:01:02Z,42.805,6.029,13.3012,4.60072,2470.67,2023-3-22T13:03:46Z
2023-03-22T11:04:05Z,42.805,6.029,13.3013,4.60072,2470.707,2023-3-22T13:06:49Z
2023-03-22T11:07:08Z,42.805,6.029,13.3011,4.60071,2470.67,2023-3-22T13:09:52Z
2023-03-22T11:10:11Z,42.805,6.029,13.3015,4.60072,2470.693,2023-3-22T13:12:55Z
2023-03-22T11:13:14Z,42.805,6.029,13.3011,4.60072,2470.67,2023-3-22T13:15:58Z
2023-03-22T11:16:18Z,42.805,6.029,13.3012,4.60072,2470.67,2023-3-22T13:19:01Z
2023-03-22T11:19:21Z,42.805,6.029,13.3015,4.60073,2470.693,2023-3-22T13:22:04Z
2023-03-22T11:22:24Z,42.805,6.029,13.3013,4.60072,2470.67,2023-3-22T13:25:07Z
2023-03-22T11:25:27Z,42.805,6.029,13.3012,4.60072,2470.67,2023-3-22T13:28:10Z
2023-03-22T11:28:30Z,42.805,6.029,13.3013,4.60073,2470.646,2023-3-22T13:31:13Z
2023-03-22T11:31:34Z,42.805,6.029,13.3011,4.60073,2470.646,2023-3-22T13:34:18Z
2023-03-22T11:34:37Z,42.805,6.029,13.3015,4.60073,2470.646,2023-3-22T13:37:21Z
2023-03-22T11:37:41Z,42.805,6.029,13.3015,4.60072,2470.67,2023-3-22T13:40:24Z
2023-03-22T11:40:44Z,42.805,6.029,13.3014,4.60072,2470.646,2023-3-22T13:43:27Z
2023-03-22T11:43:47Z,42.805,6.029,13.3016,4.60072,2470.646,2023-3-22T13:46:30Z
2023-03-22T11:46:50Z,42.805,6.029,13.3014,4.60072,2470.67,2023-3-22T13:49:33Z
2023-03-22T11:49:53Z,42.805,6.029,13.3017,4.60073,2470.624,2023-3-22T13:52:36Z
2023-03-22T11:52:56Z,42.805,6.029,13.3014,4.60071,2470.624,2023-3-22T13:55:39Z
2023-03-22T11:55:59Z,42.805,6.029,13.3014,4.60071,2470.661,2023-3-22T13:58:43Z
2023-03-22T11:59:02Z,42.805,6.029,13.3014,4.60071,2470.67,2023-3-22T14:01:46Z
2023-03-22T12:02:05Z,42.805,6.029,13.3010,4.60073,2470.637,2023-3-22T14:04:49Z
2023-03-22T12:05:08Z,42.805,6.029,13.3015,4.60072,2470.646,2023-3-22T14:07:52Z
2023-03-22T12:08:11Z,42.805,6.029,13.3014,4.60073,2470.624,2023-3-22T14:10:55Z
2023-03-22T12:11:15Z,42.805,6.029,13.3015,4.60072,2470.637,2023-3-22T14:13:58Z
2023-03-22T12:14:18Z,42.805,6.029,13.3014,4.60071,2470.6,2023-3-22T14:17:01Z
2023-03-22T12:17:21Z,42.805,6.029,13.3014,4.60072,2470.637,2023-3-22T14:20:04Z
2023-03-22T12:20:24Z,42.805,6.029,13.3017,4.60071,2470.624,2023-3-22T14:23:07Z
2023-03-22T12:23:27Z,42.805,6.029,13.3011,4.60072,2470.539,2023-3-22T14:26:10Z
2023-03-22T12:26:30Z,42.805,6.029,13.3014,4.60072,2470.637,2023-3-22T14:29:13Z
2023-03-22T12:29:33Z,42.805,6.029,13.3014,4.60071,2470.624,2023-3-22T14:32:17Z
2023-03-22T12:32:36Z,42.805,6.029,13.3011,4.60070,2470.577,2023-3-22T14:35:20Z
2023-03-22T12:35:39Z,42.805,6.029,13.3014,4.60070,2470.614,2023-3-22T14:38:23Z
2023-03-22T12:38:42Z,42.805,6.029,13.3010,4.60073,2470.577,2023-3-22T14:41:26Z
2023-03-22T12:41:45Z,42.805,6.029,13.3015,4.60072,2470.6,2023-3-22T14:44:29Z
2023-03-22T12:44:48Z,42.805,6.029,13.3015,4.60074,2470.6,2023-3-22T14:47:32Z
2023-03-22T12:47:52Z,42.805,6.029,13.3014,4.60072,2470.586,2023-3-22T14:50:35Z
2023-03-22T12:50:55Z,42.805,6.029,13.3014,4.60072,2470.6,2023-3-22T14:53:38Z
2023-03-22T12:53:58Z,42.805,6.029,13.3014,4.60072,2470.577,2023-3-22T14:56:41Z
2023-03-22T12:57:01Z,42.805,6.029,13.3016,4.60071,2470.591,2023-3-22T14:59:44Z
2023-03-22T13:00:04Z,42.805,6.029,13.3015,4.60071,2470.591,2023-3-22T15:02:47Z
2023-03-22T13:03:07Z,42.805,6.029,13.3012,4.60074,2470.553,2023-3-22T15:05:51Z
2023-03-22T13:06:10Z,42.805,6.029,13.3014,4.60072,2470.577,2023-3-22T15:08:54Z
2023-03-22T13:09:13Z,42.805,6.029,13.3012,4.60072,2470.577,2023-3-22T15:11:57Z
2023-03-22T13:12:16Z,42.805,6.029,13.3016,4.60070,2470.53,2023-3-22T15:15:00Z
2023-03-22T13:15:19Z,42.805,6.029,13.3011,4.60072,2470.577,2023-3-22T15:18:03Z
2023-03-22T13:18:22Z,42.805,6.029,13.3015,4.60072,2470.553,2023-3-22T15:21:06Z
2023-03-22T13:21:26Z,42.805,6.029,13.3013,4.60069,2470.577,2023-3-22T15:24:09Z
2023-03-22T13:24:29Z,42.805,6.029,13.3012,4.60070,2470.567,2023-3-22T15:27:12Z
2023-03-22T13:27:32Z,42.805,6.029,13.3014,4.60070,2470.553,2023-3-22T15:30:15Z
2023-03-22T13:30:35Z,42.805,6.029,13.3011,4.60071,2470.567,2023-3-22T15:33:18Z
2023-03-22T13:33:38Z,42.805,6.029,13.3012,4.60071,2470.591,2023-3-22T15:36:21Z
2023-03-22T13:36:41Z,42.805,6.029,13.3012,4.60072,2470.553,2023-3-22T15:39:24Z
2023-03-22T13:39:44Z,42.805,6.029,13.3014,4.60072,2470.553,2023-3-22T15:42:28Z
2023-03-22T13:42:47Z,42.805,6.029,13.3015,4.60069,2470.53,2023-3-22T15:45:31Z
2023-03-22T13:45:50Z,42.805,6.029,13.3016,4.60071,2470.53,2023-3-22T15:48:34Z
2023-03-22T13:48:53Z,42.805,6.029,13.3015,4.60070,2470.516,2023-3-22T15:51:37Z
2023-03-22T13:51:56Z,42.805,6.029,13.3014,4.60072,2470.53,2023-3-22T15:54:40Z
2023-03-22T13:54:59Z,42.805,6.029,13.3011,4.60072,2470.53,2023-3-22T15:57:43Z
2023-03-22T13:58:03Z,42.805,6.029,13.3015,4.60070,2470.553,2023-3-22T16:00:46Z
2023-03-22T14:01:06Z,42.805,6.029,13.3011,4.60070,2470.553,2023-3-22T16:03:49Z
2023-03-22T14:04:09Z,42.805,6.029,13.3013,4.60072,2470.53,2023-3-22T16:06:52Z
2023-03-22T14:07:12Z,42.805,6.029,13.3014,4.60072,2470.553,2023-3-22T16:09:55Z
2023-03-22T14:10:15Z,42.805,6.029,13.3009,4.60072,2470.553,2023-3-22T16:12:58Z
2023-03-22T14:13:18Z,42.805,6.029,13.3015,4.60072,2470.53,2023-3-22T16:16:02Z
2023-03-22T14:16:21Z,42.805,6.029,13.3011,4.60069,2470.544,2023-3-22T16:19:05Z
2023-03-22T14:19:24Z,42.805,6.029,13.3014,4.60072,2470.52,2023-3-22T16:22:08Z
2023-03-22T14:22:27Z,42.805,6.029,13.3014,4.60070,2470.553,2023-3-22T16:25:11Z
2023-03-22T14:25:30Z,42.805,6.029,13.3015,4.60070,2470.53,2023-3-22T16:28:14Z
2023-03-22T14:28:33Z,42.805,6.029,13.3017,4.60071,2470.53,2023-3-22T16:31:17Z
2023-03-22T14:31:37Z,42.805,6.029,13.3015,4.60072,2470.544,2023-3-22T16:34:20Z
2023-03-22T14:34:40Z,42.805,6.029,13.3011,4.60072,2470.53,2023-3-22T16:37:23Z
2023-03-22T14:37:43Z,42.805,6.029,13.3012,4.60070,2470.553,2023-3-22T16:40:26Z
2023-03-22T14:40:46Z,42.805,6.029,13.3014,4.60071,2470.553,2023-3-22T16:43:29Z
2023-03-22T14:43:49Z,42.805,6.029,13.3014,4.60069,2470.544,2023-3-22T16:46:32Z
2023-03-22T14:46:52Z,42.805,6.029,13.3013,4.60070,2470.52,2023-3-22T16:49:35Z
2023-03-22T14:49:55Z,42.805,6.029,13.3014,4.60070,2470.567,2023-3-22T16:52:39Z
2023-03-22T14:52:58Z,42.805,6.029,13.3012,4.60070,2470.544,2023-3-22T16:55:42Z
2023-03-22T14:56:01Z,42.805,6.029,13.3009,4.60070,2470.53,2023-3-22T16:58:45Z
2023-03-22T14:59:04Z,42.805,6.029,13.3018,4.60072,2470.553,2023-3-22T17:01:48Z
2023-03-22T15:02:07Z,42.805,6.029,13.3011,4.60072,2470.516,2023-3-22T17:04:51Z
2023-03-22T15:05:10Z,42.805,6.029,13.3012,4.60072,2470.53,2023-3-22T17:07:54Z
2023-03-22T15:08:14Z,42.805,6.029,13.3011,4.60072,2470.539,2023-3-22T17:10:57Z
2023-03-22T15:11:17Z,42.805,6.029,13.3014,4.60072,2470.507,2023-3-22T17:14:00Z
2023-03-22T15:14:20Z,42.805,6.029,13.3014,4.60070,2470.553,2023-3-22T17:17:03Z